Lid_Strength_Index
3 2 2 1 1 1 0 -0 -1 -1 -1 -1 -1 -1 -1 -1 -1 -1 1 -1 2 6 4 3 3 5 5 5 8 6 7 7 9 12 12 11 12 10 11 9 11 11 13 14 14 16 17 6 6 9 7 5 5 5
1 2 2 2 1 1 0 0 -0 -1 -1 -1 -1 -1 -1 -2 -2 -2 1 -1 -1 3 4 1 2 1 2 2 5 5 7 7 7 10 10 10 11 10 11 14 7 11 9 10 11 12 7 5 5 4 4 5 5 5
2 2 2 2 2 1 1 1 0 -0 -0 -1 -1 -1 -1 -1 -2 -2 0 -0 0 4 4 4 5 1 0 1 0 6 5 4 6 5 8 9 12 9 13 11 9 7 6 8 8 7 6 5 4 4 4 4 4 4
1 1 1 1 1 1 1 1 1 0 0 0 -1 -1 -1 -1 -1 -1 0 -1 1 3 7 5 1 2 0 0 1 1 3 3 4 5 8 9 11 7 9 8 9 7 7 8 8 6 5 5 4 4 4 3 4 4
1 1 1 0 0 1 1 1 1 1 0 0 -0 -1 -1 -1 -1 -2 -2 -1 -1 4 7 6 2 2 1 1 1 1 3 4 6 8 9 10 7 8 7 7 8 6 7 9 10 6 6 5 4 3 4 4 4 5
2 1 1 1 0 -0 1 1 1 1 1 -0 -0 -1 -2 -1 -1 -0 4 -0 -2 0 5 8 2 3 2 1 2 3 3 4 5 7 8 6 5 7 9 10 6 5 4 4 6 4 4 4 3 3 4 4 4 5
1 0 1 1 -0 -0 0 2 1 1 0 -0 -1 -2 -2 -2 -1 2 3 1 -2 -0 4 8 7 3 2 2 3 4 4 6 6 7 8 7 7 6 8 11 6 5 4 4 3 4 5 4 5 3 4 4 4 3
1 1 0 -0 1 -0 2 1 1 1 0 -1 -1 -1 -2 -1 -1 2 -1 -1 -2 2 3 8 8 6 3 7 8 6 7 7 7 7 7 7 6 5 10 6 5 4 4 4 4 3 4 3 3 3 3 3 3 4
1 1 1 0 1 1 1 1 1 0 -0 -1 -1 -1 -1 1 3 2 -1 -1 -1 3 7 7 9 10 4 6 6 7 6 10 6 8 7 6 8 10 7 6 5 5 5 5 4 3 4 4 4 4 3 3 4 4
1 1 0 -0 0 0 0 -0 -0 -1 -2 -1 -1 3 5 2 -1 -1 1 4 5 5 5 8 6 9 6 7 8 8 6 8 9 7 5 8 9 5 5 4 4 5 4 4 5 5 5 5 4 4 4 3 3 3
1 1 1 0 -0 -1 -1 -0 -1 -1 -0 0 3 4 0 -1 1 3 7 8 7 9 7 8 8 8 5 9 9 6 8 7 11 8 9 10 9 6 5 5 4 4 4 4 3 3 3 4 4 4 4 3 3 3
1 1 1 1 1 1 1 1 1 1 2 2 2 1 2 4 6 9 9 8 9 10 7 7 6 6 6 4 7 7 10 9 12 7 10 11 7 5 5 6 6 5 4 4 3 4 3 4 3 3 4 4 3 4
2 1 1 1 1 1 1 0 1 1 1 1 3 6 7 7 11 12 13 11 11 7 6 6 8 5 5 5 7 8 11 11 6 11 11 8 6 6 5 7 7 5 4 4 4 4 3 3 3 3 4 4 5 7
1 1 1 1 1 1 1 1 1 1 2 5 8 11 9 11 10 9 9 9 6 6 7 6 7 7 6 8 8 11 8 8 12 13 11 8 7 6 5 6 6 6 6 6 5 6 7 8 8 8 8 8 9 9
1 1 1 1 1 1 1 1 1 0 3 7 7 11 10 7 6 6 6 6 6 6 7 7 7 6 8 9 8 9 11 13 11 11 8 7 6 7 6 6 6 6 7 6 6 8 10 9 9 9 9 9 8 9
-0 0 0 1 1 1 1 1 2 3 5 7 7 8 6 7 8 7 6 6 4 5 5 5 8 10 10 9 11 12 11 12 9 8 6 5 6 6 7 7 7 7 7 6 7 7 8 9 9 9 9 9 9 9
1 0 1 0 0 -0 0 3 4 7 6 8 8 6 7 7 7 7 5 6 3 6 8 7 10 10 7 11 11 8 10 8 7 6 5 5 6 6 6 7 7 7 7 7 7 7 8 8 8 8 9 9 9 9
-0 -1 1 1 1 1 1 3 4 5 7 6 8 6 6 6 7 7 5 5 5 6 6 9 7 10 11 11 10 8 7 6 5 5 6 6 6 6 6 7 7 7 7 7 8 8 8 8 7 6 8 8 9 9
1 1 2 2 1 1 4 4 3 7 6 5 6 6 6 6 5 5 5 4 4 4 6 7 9 10 9 7 8 7 7 7 7 6 5 5 6 7 8 7 7 7 7 7 6 6 5 6 5 5 6 7 7 7
2 2 2 2 2 2 5 4 1 5 7 5 4 5 5 5 5 5 5 5 6 6 8 8 8 7 7 6 6 6 6 6 7 7 6 5 5 6 6 6 6 7 7 7 8 8 5 6 6 6 6 6 6 7
4 3 3 2 1 2 3 4 5 4 5 6 4 5 5 5 7 6 7 5 7 7 8 6 6 6 6 6 5 5 5 5 6 7 7 7 6 6 6 6 7 7 7 7 7 7 7 6 5 6 6 7 6 6
3 5 3 3 5 5 5 3 5 4 5 5 5 5 6 7 7 7 5 7 7 6 6 6 6 6 6 6 5 6 6 7 6 6 7 7 7 7 6 6 6 7 7 7 7 7 6 5 5 6 7 8 8 8
5 5 5 6 8 8 8 5 8 7 9 8 6 8 7 6 5 4 7 6 6 5 4 5 6 5 5 5 5 5 5 6 7 6 6 6 6 6 6 6 6 7 8 7 6 6 6 6 7 6 7 8 8 9
7 9 10 10 9 11 8 9 7 8 8 9 10 11 10 7 6 7 9 6 5 4 5 6 5 6 5 5 6 6 7 7 8 7 6 6 7 6 6 6 6 6 7 7 6 6 7 7 7 7 8 8 8 9
11 12 11 11 9 10 11 11 10 10 12 10 12 11 9 7 10 10 10 8 7 7 6 5 5 5 6 6 6 6 6 7 8 9 7 7 7 6 7 6 6 6 6 7 8 7 7 7 7 8 8 8 8 9
14 12 12 11 11 12 12 13 13 12 12 12 11 9 8 10 12 12 10 9 9 8 7 7 7 7 6 6 6 6 6 7 8 9 7 6 7 8 8 8 7 6 5 6 7 8 8 8 8 8 8 8 8 8
14 12 10 8 10 11 11 11 10 12 13 13 11 11 11 13 13 10 8 9 9 8 8 8 8 8 8 8 7 7 6 6 7 7 6 6 6 7 7 8 7 6 5 6 7 7 8 8 8 8 8 8 8 8
11 11 13 11 11 10 13 12 13 13 12 10 11 13 13 12 12 10 10 9 9 8 8 8 8 9 9 9 8 8 7 6 6 5 4 4 3 4 5 5 5 7 6 6 7 7 7 7 7 7 8 8 9 8
11 9 10 13 12 12 12 12 12 10 9 10 12 12 11 10 11 11 10 9 9 9 10 11 10 9 9 9 9 8 8 8 8 9 9 8 6 5 4 5 5 5 5 5 7 7 6 6 7 7 7 8 8 9
11 9 12 12 13 13 10 9 10 8 8 9 9 9 9 11 10 9 10 10 10 11 10 10 10 11 12 12 12 11 10 8 7 9 10 9 7 5 5 5 5 5 6 5 6 6 7 6 7 7 8 9 9 10
10 10 11 11 12 10 9 8 8 8 9 10 10 11 11 11 10 10 11 10 10 10 11 12 12 12 12 13 13 13 12 10 9 9 9 7 6 5 5 5 5 5 6 6 6 6 7 7 7 8 9 10 10 11
10 12 13 14 12 9 8 9 10 10 10 11 10 10 10 10 12 12 11 10 11 12 12 12 13 13 12 12 12 11 10 10 9 8 9 8 7 6 6 6 6 6 6 7 7 7 7 8 8 9 9 10 10 10
11 11 11 12 13 13 11 11 12 12 11 11 11 11 11 11 14 11 9 9 11 11 12 11 11 11 11 11 11 10 11 10 9 8 9 9 8 8 7 6 6 7 8 7 8 8 8 9 10 10 11 11 12 12